Elmira, NY

5:35 PM EST on November 19, 2017 (GMT -0500)
Elmira-Corning Regional

Weather History for KELM - December, 2013

Change the Weather History Date:

Wednesday, December 4, 2013

  Actual Average Record
Temperature  
Mean Temperature 42 °F -  
Max Temperature 52 °F 39 °F 69 °F (2012)
Min Temperature 32 °F 22 °F 0 °F (1966)
Degree Days  
Heating Degree Days 23    
Moisture  
Dew Point 33 °F    
Average Humidity 88    
Maximum Humidity 96    
Minimum Humidity 61    
Precipitation  
Precipitation 0.00 in - - ()
Sea Level Pressure  
Sea Level Pressure 30.02 in    
Wind  
Wind Speed 0 mph (ENE)    
Max Wind Speed 4 mph    
Max Gust Speed -    
Visibility 3 miles    
Events Fog , Rain    
Averages and records for this station are not official NWS values.
T = Trace of Precipitation, MM = Missing Value Source: NWS Daily Summary

Daily Weather History Graph

Daily Weather History Graph

Search for Another Location

Airport or City:

Trip Planner

Search our weather history database for the weather conditions in past years. The results will help you decide how hot, cold, wet, or windy it might be!

Date:

Astronomy

Dec. 04, 2013 Rise Set
Actual Time 7:19 AM EST 4:35 PM EST
Civil Twilight 6:48 AM EST 5:07 PM EST
Nautical Twilight 6:13 AM EST 5:42 PM EST
Astronomical Twilight 5:39 AM EST 6:16 PM EST
Moon 8:45 AM EST (12/4) 6:44 PM EST (12/4)
Length of Visible Light 10h 18m
Length of Day
9h 16m
Waxing Crescent, 4% of the Moon is Illuminated
Dec 4
Waxing Crescent
Dec 9
First Quarter
Dec 17
Full
Dec 25
Last Quarter
Jan 1
New

Hourly Weather History & Observations

Time (EST) Temp. Windchill Dew Point Humidity Pressure Visibility Wind Dir Wind Speed Gust Speed Precip Events Conditions
12:00 AM 32.0 °F - 30.2 °F 93% 29.99 in 3.0 mi Calm Calm - N/A   Overcast
12:21 AM 32.0 °F - 30.2 °F 93% 29.99 in 3.0 mi Calm Calm - N/A   Overcast
12:50 AM 33.8 °F - 30.2 °F 87% 29.99 in 2.5 mi Calm Calm - N/A   Overcast
12:53 AM 33.1 °F - 30.0 °F 89% 30.01 in 2.5 mi Calm Calm - N/A   Overcast
1:15 AM 32.0 °F - 30.2 °F 93% 29.98 in 1.5 mi Calm Calm - N/A   Overcast
1:32 AM 32.0 °F - 30.2 °F 93% 29.99 in 0.5 mi Calm Calm - N/A Fog Fog
1:41 AM 32.0 °F - 30.2 °F 93% 29.99 in 0.5 mi Calm Calm - N/A Fog Fog
1:53 AM 33.1 °F - 30.0 °F 89% 30.03 in 0.5 mi Calm Calm - N/A Fog Fog
2:07 AM 33.8 °F - 30.2 °F 87% 30.01 in 0.2 mi Calm Calm - N/A Fog Fog
2:53 AM 33.1 °F - 30.9 °F 92% 30.04 in 0.2 mi Calm Calm - N/A Fog Fog
3:53 AM 33.1 °F - 32.0 °F 96% 30.04 in 0.2 mi Calm Calm - N/A Fog Fog
4:53 AM 33.1 °F - 32.0 °F 96% 30.04 in 0.2 mi Calm Calm - 0.00 in Fog , Rain Light Rain
5:18 AM 33.8 °F - 32.0 °F 93% 30.01 in 0.5 mi Calm Calm - 0.00 in Fog , Rain Light Rain
5:31 AM 33.8 °F 30.8 °F 32.0 °F 93% 30.01 in 1.0 mi ESE 3.5 mph - 0.00 in Rain Light Rain
5:38 AM 33.8 °F - 32.0 °F 93% 30.01 in 0.8 mi Calm Calm - 0.00 in Rain Light Rain
5:48 AM 33.8 °F - 32.0 °F 93% 30.01 in 1.5 mi Calm Calm - 0.00 in Rain Light Rain
5:53 AM 33.1 °F - 32.0 °F 96% 30.05 in 1.5 mi Calm Calm - 0.00 in Rain Light Rain
6:37 AM 33.8 °F - 32.0 °F 93% 30.01 in 2.0 mi Calm Calm - 0.00 in   Overcast
6:53 AM 35.1 °F 32.2 °F 33.1 °F 92% 30.04 in 2.0 mi NE 3.5 mph - 0.00 in   Overcast
7:53 AM 35.1 °F - 33.1 °F 92% 30.05 in 2.0 mi Calm Calm - N/A   Overcast
8:14 AM 35.6 °F - 33.8 °F 93% 30.03 in 1.5 mi Calm Calm - N/A   Overcast
8:53 AM 36.0 °F - 33.1 °F 89% 30.07 in 1.5 mi Calm Calm - N/A   Overcast
9:53 AM 37.0 °F - 34.0 °F 89% 30.09 in 1.5 mi Calm Calm - N/A   Overcast
10:53 AM 37.9 °F - 34.0 °F 86% 30.07 in 1.5 mi Calm Calm - N/A   Overcast
11:51 AM 42.8 °F 41.1 °F 35.6 °F 76% 30.02 in 4.0 mi NNE 3.5 mph - N/A   Haze
11:53 AM 43.0 °F 41.3 °F 36.0 °F 76% 30.04 in 4.0 mi Variable 3.5 mph - N/A   Haze
12:53 PM 46.9 °F - 37.0 °F 68% 30.02 in 5.0 mi Calm Calm - N/A   Haze
1:53 PM 50.0 °F - 37.9 °F 63% 30.00 in 6.0 mi Calm Calm - N/A   Haze
2:53 PM 52.0 °F - 39.0 °F 61% 29.99 in 6.0 mi Calm Calm - N/A   Haze
3:53 PM 46.9 °F - 39.0 °F 74% 30.01 in 5.0 mi Calm Calm - N/A   Haze
4:53 PM 39.9 °F - 35.1 °F 83% 30.02 in 6.0 mi Calm Calm - N/A   Haze
5:53 PM 36.0 °F - 33.1 °F 89% 30.03 in 5.0 mi Calm Calm - N/A   Clear
6:53 PM 34.0 °F - 30.9 °F 89% 30.04 in 4.0 mi Calm Calm - N/A   Clear
7:53 PM 35.1 °F - 32.0 °F 89% 30.03 in 3.0 mi Calm Calm - N/A   Clear
8:53 PM 32.0 °F - 30.0 °F 92% 30.02 in 3.0 mi Calm Calm - N/A   Clear
9:49 PM 35.6 °F - 33.8 °F 93% 30.00 in 4.0 mi Calm Calm - N/A   Mostly Cloudy
9:53 PM 34.0 °F - 32.0 °F 92% 30.02 in 4.0 mi Calm Calm - N/A   Mostly Cloudy
10:53 PM 37.9 °F - 35.1 °F 89% 30.03 in 5.0 mi Calm Calm - N/A   Overcast
11:53 PM 39.9 °F - 36.0 °F 86% 30.01 in 5.0 mi Calm Calm - N/A   Overcast